Location: Ashley Manor
(39.1334°N, 77.0344°W)
Time: 05:58:22
(UTC+00:00)

Daily predictions for brighter satellites

Satellite Brightness Start Highest point End
(mag) Time Altitude Azimuth Time Altitude Azimuth Time Altitude Azimuth
Gbstr 26 Del rocket 3.9 00:02:58 10° SW 00:05:34 38° SW 00:05:34 38° SW
Cosmos 1607 3.8 00:01:32 10° NNW 00:07:47 76° ENE 00:08:21 70° ESE
Cosmos 1354 Rocket 4.4 00:03:45 10° SSW 00:08:58 61° WNW 00:10:25 44° NNW
Cosmos 1697 Rocket 2.9 00:06:37 10° SSW 00:12:10 67° WNW 00:13:23 52° N
BREEZE-M DEB (TANK) 3.3 00:06:49 10° SW 00:15:42 75° SE 00:15:42 75° SE
BREEZE-M DEB (TANK) 4.1 00:10:23 10° SW 00:17:53 55° S 00:17:53 55° S
BREEZE-M DEB (TANK) 4.2 00:19:19 10° NW 00:23:52 54° NNE 00:23:52 54° NNE
Cosmos 1655 Rocket 4.2 00:18:07 10° NNW 00:24:18 68° W 00:30:27 10° S
Cosmos 724 4.4 00:22:55 10° NW 00:28:38 71° W 00:28:38 71° W
NOSS 3-2 (C) 4.5 00:29:56 10° WSW 00:34:24 31° NW 00:34:58 30° NNW
Cosmos 2297 Rocket 3.8 00:43:31 10° NW 00:48:24 31° WSW 00:53:15 10° SSW
CZ-4C R/B 3.2 00:52:03 10° NW 00:59:09 73° W 00:59:09 73° W
Cosmos 1980 Rocket 4.3 01:07:08 10° SW 01:09:03 21° SW 01:09:03 21° SW
CZ-3 R/B 4.2 06:44:35 10° WSW 07:40:02 60° SSE 07:50:33 10° ESE
Cosmos 1697 Rocket 3.8 09:07:46 41° E 09:07:46 41° E 09:12:03 10° SE
USA 238 DEB 4.1 09:06:45 70° NE 09:07:05 71° NE 09:15:12 10° SE
USA 238 4.1 09:06:48 69° NE 09:07:12 70° NE 09:15:18 10° SE
Atlas Centaur 2 4.3 09:27:36 24° SSW 09:27:36 24° SSW 09:33:10 10° SSE
Cosmos 2082 Rocket 3.4 09:33:04 10° S 09:38:16 40° ESE 09:43:29 10° NE
Cosmos 1634 Rocket 3.8 09:41:04 77° NNW 09:41:33 85° W 09:47:45 10° S
Cosmos 2098 Rocket 3.9 09:55:01 14° N 10:00:01 74° E 10:05:49 10° SSE
SL-8 R/B 4.0 10:01:43 53° N 10:02:05 54° NNE 10:06:45 10° ESE
Cosmos 2279 Rocket 3.9 09:56:49 13° N 10:02:33 85° W 10:08:48 10° S
Cosmos 990 Rocket 3.9 10:04:29 45° NNW 10:06:08 88° E 10:11:21 10° SSE
Cosmos 1980 Rocket 2.5 10:04:00 25° N 10:07:15 65° ENE 10:12:46 10° SSE
BREEZE M DEB (TANK) 4.3 10:13:53 11° SSE 10:14:52 13° SE 10:16:03 10° E
Tiangong -1.0 10:16:27 40° NE 10:16:27 40° NE 10:18:51 10° E
PKM 3.9 10:16:37 52° NE 10:16:37 52° NE 10:19:09 10° ESE
Cosmos 1346 Rocket 3.0 10:20:54 10° S 10:24:32 64° E 10:28:12 10° NNE
Cosmos 540 Rocket 4.3 10:25:56 31° NNW 10:25:56 31° NNW 10:29:21 10° N
USA 59 Rocket 1.8 10:24:05 15° N 10:26:26 27° NE 10:30:31 10° ESE
COSMO-SKYMED 1 2.9 10:24:55 10° SSE 10:28:57 59° ENE 10:33:00 10° N
Cosmos 1606 Rocket 4.1 10:25:46 10° N 10:30:10 58° E 10:34:29 10° SSE
Timation 1 Rocket 4.4 10:25:41 16° SW 10:30:15 50° WNW 10:36:03 10° NNE
Cosmos 2142 Rocket 4.4 10:26:28 10° NNW 10:32:41 65° W 10:38:48 10° S
Cosmos 1354 Rocket 4.5 10:36:49 32° WNW 10:38:08 38° WSW 10:42:53 10° SSW
Cosmos 1544 Rocket 4.4 10:39:22 30° WSW 10:39:22 30° WSW 10:42:43 10° SSW
Meteor 2-3 Rocket 4.1 10:34:40 10° S 10:40:23 70° E 10:46:05 10° NNE
Cosmos 841 Rocket 3.4 10:36:08 10° SSW 10:41:20 89° WNW 10:46:37 10° NNE
COSMOS 2455 3.3 10:38:05 11° NNW 10:43:58 62° ENE 10:49:54 10° SE
RUBIN 8/PSLV 4.4 10:45:16 10° N 10:49:36 77° WNW 10:53:52 10° SSW
Cosmos 1484 Rocket 2.7 10:46:35 10° NNE 10:50:00 69° ESE 10:53:21 10° S
IRS-1D 3.8 10:45:26 10° N 10:50:06 42° WNW 10:54:50 10° SW
Cosmos 1697 Rocket 3.8 10:49:33 22° W 10:50:13 23° W 10:54:32 10° SSW
Cosmos 1092 Rocket 4.4 10:46:28 10° S 10:52:42 67° E 10:58:54 10° NNE
NOAA 12 4.3 10:47:41 10° N 10:52:44 47° WNW 10:57:44 10° SW
Cosmos 220 Rocket 3.7 10:53:50 10° SSW 10:57:50 69° WNW 11:01:55 10° NNE
Cosmos 1933 3.2 10:54:54 11° NNW 10:58:25 53° W 11:02:07 10° S
Cosmos 1726 Rocket 3.5 10:54:07 10° N 10:58:32 88° E 11:02:45 10° S
Cosmos 2322 Rocket 4.3 10:54:58 10° N 10:59:23 22° NE 11:03:45 10° ESE
Cosmos 1898 Rocket 3.5 10:54:24 10° NNW 10:59:40 89° WSW 11:04:55 10° SSE
Nadezhda 4 Rocket 4.2 10:54:44 10° SSW 11:00:51 51° W 11:06:58 10° N
COSMOS 2406 3.1 10:57:01 10° SSW 11:02:41 75° WNW 11:08:22 10° NNE
Cosmos 2237 4.5 10:57:11 10° NNW 11:02:54 72° ENE 11:08:35 10° SSE
Cosmos 489 Rocket 4.5 10:56:55 10° SSW 11:03:09 63° WNW 11:09:24 10° NNE
Cosmos 1892 Rocket 3.5 11:05:24 10° SSW 11:09:41 66° W 11:14:03 10° N
Delta 2 Rocket 3.4 11:07:57 16° WSW 11:10:01 39° S 11:12:50 10° ESE
SMAP 4.1 11:05:55 10° NNE 11:10:27 50° E 11:14:58 10° S
Aureole 1 Rocket 4.5 11:05:53 10° NNW 11:12:45 57° WSW 11:20:01 10° S
NOSS 3-1 (C) 4.4 11:10:52 10° NNW 11:18:20 75° NE 11:27:28 10° SE
CZ-3 R/B 3.9 11:09:17 10° W 11:20:33 22° SW 11:25:59 10° S
Cosmos 2082 Rocket 3.0 11:17:39 10° WSW 11:22:25 28° WNW 11:27:12 10° N
Helios 1A Rocket 3.5 11:20:20 10° SSW 11:23:07 25° W 11:25:57 10° NW
SL-16 R/B 2.8 11:18:48 10° NNW 11:24:25 59° ENE 11:29:59 10° SE
ARIANE 5 R/B 3.6 11:19:35 10° NNE 11:24:40 50° E 11:29:43 10° S
BREEZE-M DEB (TANK) 3.6 11:23:10 12° NW 11:25:56 41° NNE 11:33:12 10° E
Cosmos 1937 Rocket 3.5 11:23:46 10° NNW 11:28:50 66° WSW 11:33:53 10° S
IGS 5A 3.7 11:29:49 10° N 11:33:36 42° WNW 11:37:22 10° SW
IRIDIUM 103 4.5 11:29:54 10° S 11:35:06 83° E 11:40:21 10° N
BREEZE-M DEB (TANK) 3.9 11:33:36 10° WNW 11:39:15 38° SW 11:42:12 10° SSE
Cosmos 2058 Rocket 3.1 11:37:03 10° NNW 11:41:27 65° W 11:45:47 10° S
CBERS-1 4.3 11:40:04 10° N 11:44:55 45° WNW 11:49:43 10° SW
Cosmos 2278 3.9 11:40:32 10° NNW 11:46:13 78° ENE 11:51:51 10° SSE
Cosmos 1814 Rocket 4.1 11:41:36 10° SSW 11:46:47 85° ESE 11:52:04 10° NNE
